Satellite-Ground Cal/Val Region Overpasses Predictions

Prediction of Satellite NPP Overpassing Cal/Val Region: PacNW

Region Location: (Latitude: 10.00, Longitude: 139.50) to (Latitude: 22.70, Longitude: 165.60).

Table of predicted overpasses for the next 14.0 days since TLE Epoch: 10/27/2017
Interval Starting Time Starting Location Ending Time Ending Location
1 10/28/2017 03:36:59 ( 10.01, 145.54) 10/28/2017 03:40:35 ( 22.69, 142.53)
2 10/28/2017 14:30:23 ( 12.08, 165.60) 10/28/2017 14:30:58 ( 10.03, 165.13)
3 10/28/2017 16:08:53 ( 22.64, 142.75) 10/28/2017 16:12:28 ( 10.02, 139.75)
4 10/29/2017 03:17:57 ( 10.04, 150.29) 10/29/2017 03:21:32 ( 22.66, 147.29)
5 10/29/2017 15:49:50 ( 22.67, 147.51) 10/29/2017 15:53:25 ( 10.05, 144.51)
6 10/30/2017 02:58:55 ( 10.01, 155.05) 10/30/2017 03:02:31 ( 22.69, 152.04)
7 10/30/2017 15:30:49 ( 22.64, 152.26) 10/30/2017 15:34:24 ( 10.02, 149.26)
8 10/31/2017 02:39:54 ( 10.03, 159.80) 10/31/2017 02:43:29 ( 22.66, 156.80)
9 10/31/2017 15:11:46 ( 22.67, 157.03) 10/31/2017 15:15:21 ( 10.05, 154.03)
10 11/01/2017 02:20:51 ( 10.01, 164.56) 11/01/2017 02:24:27 ( 22.69, 161.55)
11 11/01/2017 14:52:44 ( 22.70, 161.79) 11/01/2017 14:56:20 ( 10.02, 158.78)
12 11/02/2017 03:43:20 ( 10.04, 143.94) 11/02/2017 03:46:55 ( 22.67, 140.94)
13 11/02/2017 14:34:48 ( 18.80, 165.59) 11/02/2017 14:37:17 ( 10.05, 163.54)
14 11/02/2017 16:15:12 ( 22.66, 141.16) 11/02/2017 16:17:08 ( 15.86, 139.51)
15 11/03/2017 03:24:17 ( 10.02, 148.70) 11/03/2017 03:27:53 ( 22.70, 145.69)
16 11/03/2017 15:56:10 ( 22.69, 145.92) 11/03/2017 15:59:46 ( 10.01, 142.91)
17 11/04/2017 03:05:16 ( 10.05, 153.45) 11/04/2017 03:08:51 ( 22.67, 150.45)
18 11/04/2017 15:37:08 ( 22.66, 150.67) 11/04/2017 15:40:43 ( 10.04, 147.67)
19 11/05/2017 02:46:13 ( 10.02, 158.21) 11/05/2017 02:49:48 ( 22.64, 155.21)
20 11/05/2017 15:18:06 ( 22.68, 155.44) 11/05/2017 15:21:42 ( 10.00, 152.42)
21 11/06/2017 02:27:12 ( 10.05, 162.96) 11/06/2017 02:30:47 ( 22.68, 159.96)
22 11/06/2017 14:59:04 ( 22.65, 160.18) 11/06/2017 15:02:39 ( 10.03, 157.19)
23 11/07/2017 02:10:44 ( 19.13, 165.59) 11/07/2017 02:11:44 ( 22.65, 164.72)
24 11/07/2017 03:49:39 ( 10.04, 142.35) 11/07/2017 03:53:03 ( 22.01, 139.51)
25 11/07/2017 14:40:02 ( 22.68, 164.95) 11/07/2017 14:43:37 ( 10.05, 161.95)
26 11/07/2017 16:21:32 ( 22.67, 139.57) 11/07/2017 16:21:36 ( 22.43, 139.51)
27 11/08/2017 03:30:37 ( 10.01, 147.11) 11/08/2017 03:34:13 ( 22.69, 144.10)
28 11/08/2017 16:02:29 ( 22.69, 144.33) 11/08/2017 16:06:05 ( 10.01, 141.32)
29 11/09/2017 03:11:35 ( 10.05, 151.86) 11/09/2017 03:15:10 ( 22.67, 148.86)
30 11/09/2017 15:43:28 ( 22.66, 149.08) 11/09/2017 15:47:03 ( 10.04, 146.08)
31 11/10/2017 02:52:33 ( 10.02, 156.62) 11/10/2017 02:56:08 ( 22.65, 153.62)


NCC Satellite Cal/Val Overpasses Prediction Service
